CAPE
833 1136 1173 1137 1050 876 642 489 232 56 0 11 82 39 46 87 71 7 0 0 39 441 1020 1229 1216 1196 1187 1047 881 877 820 695 535 361 151 19 4 0 0 0 0 0 0
1 120 684 870 938 912 900 642 617 494 387 232 134 50 34 0 0 0 0 0 0 8 277 872 1215 1306 1359 1225 1006 839 883 783 663 549 323 81 3 0 0 0 0 0 0
3 4 3 43 62 569 890 862 936 571 628 319 161 63 0 0 0 0 0 0 0 0 0 47 457 725 848 973 995 923 867 815 671 598 436 209 33 0 0 0 0 0 0
3 5 5 5 2 4 282 458 757 749 738 652 641 247 87 16 0 0 0 0 0 0 0 0 0 55 213 488 784 973 1048 910 758 654 530 355 178 5 0 0 0 0 0
1 4 5 5 4 5 5 3 2 116 526 551 617 510 350 133 36 4 0 0 0 0 0 0 0 0 0 38 329 796 1072 1175 1081 916 700 527 355 192 63 0 0 0 0
5 2 1 4 2 4 5 3 2 1 2 320 672 701 410 573 344 168 59 16 0 0 0 0 0 0 0 0 19 307 795 1073 1206 1245 1076 836 595 387 203 77 0 0 0
0 4 1 3 2 6 3 4 4 1 0 1 7 0 283 525 485 547 324 169 44 54 68 64 0 0 0 0 0 79 494 856 966 1093 1025 1022 938 591 387 205 89 48 2
0 0 2 4 0 2 1 2 0 0 5 7 11 4 157 276 11 0 358 228 134 47 54 117 105 52 12 2 0 0 118 396 629 799 726 621 565 528 469 383 262 127 78
0 0 0 1 0 0 0 2 11 1 4 0 0 6 13 14 1 3 33 5 5 0 1 15 7 3 0 0 169 35 0 0 48 390 529 579 460 297 193 146 140 152 170
0 0 0 0 0 0 0 0 0 2 3 3 0 7 11 11 19 15 0 0 0 17 4 8 10 2 3 6 4 1 0 0 0 0 1 133 308 197 60 13 0 1 6
0 0 0 0 0 0 0 0 0 0 0 4 6 0 2 0 2 23 17 0 0 0 0 0 34 21 73 35 34 1 0 0 0 3 1 0 0 0 0 0 0 0 0
0 0 0 0 0 0 0 0 0 0 0 0 0 1 0 4 5 23 13 7 5 0 0 0 2 12 0 0 0 0 0 0 0 0 0 3 5 1 0 0 0 0 2
0 0 0 0 0 0 0 0 0 0 0 0 0 4 0 1 7 17 9 24 21 0 0 0 0 4 0 0 0 0 0 0 0 0 0 0 0 0 0 0 0 3 5
0 0 0 0 0 0 0 0 0 0 0 0 0 0 0 0 1 0 20 7 0 0 0 0 0 0 0 0 0 0 0 0 0 0 0 0 0 0 0 0 0 0 1
0 0 0 0 0 0 0 0 0 0 0 0 0 0 0 0 0 0 0 4 5 7 2 0 0 0 0 0 0 0 0 0 0 0 0 0 0 0 0 0 0 1 0
0 0 0 0 0 0 0 0 0 0 0 0 0 0 0 0 0 0 1 2 0 2 16 4 0 3 0 0 0 0 0 0 0 3 0 0 0 0 0 0 0 0 1
0 0 0 0 0 0 0 0 0 0 0 0 0 0 0 0 1 2 5 0 0 1 1 0 4 0 0 0 0 1 0 0 0 0 0 0 0 0 0 0 0 0 3
0 0 0 0 0 0 0 0 0 0 0 0 0 0 0 1 3 5 0 0 6 0 7 1 0 0 0 0 0 0 5 8 0 0 0 0 0 0 0 0 0 1 1
0 0 0 0 0 0 0 0 0 0 0 0 0 0 0 6 5 0 0 0 1 5 0 4 4 3 4 0 0 0 0 0 0 3 0 0 0 0 0 0 0 0 1
0 0 0 0 0 0 0 0 0 0 0 0 0 0 4 4 0 0 0 2 6 7 6 0 3 4 7 3 9 0 0 0 0 2 1 7 7 0 0 0 0 0 6
0 0 0 0 0 0 0 0 0 0 0 0 0 0 2 0 2 0 0 0 9 5 8 1 3 1 1 1 5 20 13 8 1 0 0 0 0 0 3 8 0 0 1
0 0 0 0 0 0 0 0 0 0 0 0 0 0 0 0 0 0 1 2 1 5 9 11 13 13 10 11 10 10 13 8 4 1 5 1 0 2 0 2 0 0 2
0 0 0 0 0 0 0 0 0 0 0 0 0 0 0 1 5 0 1 8 12 12 10 5 12 13 17 15 17 13 9 9 7 1 1 0 0 0 1 2 0 2 3
0 0 0 0 0 0 0 0 0 0 0 0 0 1 2 2 3 7 10 8 10 9 3 3 7 11 17 13 7 4 4 3 2 1 0 0 0 0 0 0 1 4 5
0 0 0 0 0 0 0 0 0 0 1 0 0 1 4 4 2 6 8 12 5 0 0 4 6 2 0 0 0 0 0 1 2 1 0 0 0 0 0 0 0 5 6
0 0 0 0 0 0 0 0 0 1 3 4 0 0 1 5 1 6 2 1 2 0 0 0 1 0 0 0 0 2 9 7 5 7 0 0 0 0 14 0 0 0 0
CIN
-57 -42 -24 -19 -33 -41 -21 -30 -56 -82 -0 -42 -78 -111 -117 -113 -137 -197 -0 -0 -389 -161 -95 -84 -95 -94 -86 -89 -105 -108 -110 -123 -146 -177 -230 -318 -390 -0 -0 -0 -0 -0 -0
-0 -329 -46 -44 -36 -17 -23 -41 -21 -24 -36 -43 -50 -100 -110 -0 -0 -0 -0 -0 -0 -146 -217 -111 -80 -71 -70 -88 -118 -133 -119 -123 -132 -139 -177 -262 -323 -0 -0 -0 -0 -0 -0
-0 -0 -0 -295 -259 -40 -38 -27 -21 -38 -22 -35 -52 -99 -0 -0 -0 -0 -0 -0 -0 -0 -0 -288 -174 -129 -110 -102 -113 -136 -145 -146 -154 -154 -172 -207 -277 -0 -0 -0 -0 -0 -0
-0 -0 -0 -0 -0 -0 -15 -42 -23 -17 -13 -16 -12 -39 -96 -152 -0 -0 -0 -0 -0 -0 -0 -0 -0 -254 -247 -177 -131 -112 -108 -133 -157 -177 -196 -215 -245 -21 -0 -0 -0 -0 -0
-0 -0 -0 -0 -0 -0 -0 -0 -0 -23 -7 -13 -14 -18 -15 -67 -144 -56 -0 -0 -0 -0 -0 -0 -0 -0 -0 -188 -237 -140 -105 -105 -116 -130 -157 -183 -217 -249 -276 -0 -0 -0 -0
-1 -0 -0 -1 -0 -0 -0 -0 -0 -0 -0 -0 -0 -4 -29 -33 -26 -85 -156 -130 -0 -0 -0 -0 -0 -0 -0 -0 -150 -232 -131 -106 -103 -106 -121 -134 -149 -174 -216 -256 -0 -0 -0
-0 -1 -0 -0 -1 -0 -0 -0 -0 -0 -0 -0 -0 -0 -35 -35 -30 -17 -14 -25 -61 -91 -79 -91 -0 -0 -0 -0 -0 -338 -177 -105 -105 -106 -110 -97 -101 -145 -160 -166 -171 -222 -12
-0 -0 -0 -0 -0 -1 -0 -0 -0 -0 -0 -0 -0 -0 -12 -11 -83 -0 -46 -35 -35 -57 -43 -37 -74 -106 -73 -26 -0 -0 -265 -191 -135 -112 -111 -113 -108 -99 -82 -69 -82 -120 -147
-0 -0 -0 -2 -0 -0 -0 -1 -0 -0 -0 -0 -0 -0 -0 -0 -0 -67 -108 -0 -0 -0 -0 -0 -136 -103 -0 -0 -34 -142 -0 -0 -157 -176 -150 -131 -127 -129 -127 -102 -79 -78 -93
-0 -0 -0 -0 -0 -0 -0 -0 -0 -2 -1 -0 -0 -0 -0 -0 -0 -0 -0 -0 -0 -1 -6 -1 -1 -0 -0 -0 -12 -0 -0 -0 -0 -0 -28 -72 -27 -68 -104 -137 -0 -1 -1
-0 -0 -0 -0 -0 -0 -0 -0 -0 -0 -0 -2 -1 -0 -3 -1 -7 -0 -0 -0 -0 -0 -0 -0 -7 -2 -1 -0 -9 -0 -0 -0 -0 -0 -0 -0 -0 -0 -0 -0 -0 -0 -0
-0 -0 -0 -0 -0 -0 -0 -0 -0 -0 -0 -0 -0 -5 -0 -2 -2 -1 -0 -1 -0 -0 -0 -0 -1 -0 -0 -0 -0 -0 -0 -0 -0 -0 -0 -0 -0 -0 -0 -0 -0 -0 -0
-0 -0 -0 -0 -0 -0 -0 -0 -0 -0 -0 -0 -0 -1 -0 -2 -8 -4 -2 -0 -0 -0 -0 -0 -0 -4 -0 -0 -0 -0 -0 -0 -0 -0 -0 -0 -0 -0 -0 -0 -0 -0 -0
-0 -0 -0 -0 -0 -0 -0 -0 -0 -0 -0 -0 -0 -0 -0 -0 -3 -0 -3 -3 -0 -0 -0 -0 -0 -0 -0 -0 -0 -0 -0 -0 -0 -0 -0 -0 -0 -0 -0 -0 -0 -0 -0
-0 -0 -0 -0 -0 -0 -0 -0 -0 -0 -0 -0 -0 -0 -0 -0 -0 -0 -2 -11 -5 -1 -0 -0 -0 -0 -0 -0 -0 -0 -0 -0 -0 -0 -0 -0 -0 -0 -0 -0 -0 -0 -0
-0 -0 -0 -0 -0 -0 -0 -0 -0 -0 -0 -0 -0 -0 -0 -0 -1 -0 -2 -2 -0 -1 -0 -1 -0 -4 -2 -0 -0 -0 -0 -0 -0 -9 -0 -0 -0 -0 -0 -0 -0 -0 -0
-0 -0 -0 -0 -0 -0 -0 -0 -0 -0 -0 -0 -0 -0 -0 -1 -3 -4 -5 -0 -0 -0 -1 -0 -1 -0 -0 -0 -0 -5 -0 -0 -0 -0 -0 -0 -0 -0 -0 -0 -0 -0 -0
-0 -0 -0 -0 -0 -0 -0 -0 -0 -0 -0 -0 -0 -0 -0 -0 -4 -3 -0 -0 -2 -0 -0 -0 -0 -0 -0 -0 -0 -0 -1 -1 -0 -0 -0 -0 -0 -0 -0 -0 -0 -0 -0
-0 -0 -0 -0 -0 -0 -0 -0 -0 -0 -0 -0 -0 -0 -0 -2 -6 -0 -0 -0 -2 -0 -0 -1 -0 -1 -0 -0 -0 -0 -0 -0 -0 -0 -0 -0 -0 -3 -0 -0 -0 -0 -0
-0 -0 -0 -0 -0 -0 -0 -0 -0 -0 -0 -0 -0 -0 -3 -11 -0 -0 -0 -2 -0 -0 -0 -0 -0 -0 -1 -1 -1 -0 -0 -2 -0 -0 -0 -1 -7 -0 -0 -0 -0 -0 -0
-0 -0 -0 -0 -0 -0 -0 -0 -0 -0 -0 -0 -0 -0 -1 -0 -9 -0 -0 -0 -1 -0 -0 -0 -0 -0 -0 -1 -1 -1 -1 -3 -1 -1 -0 -0 -0 -0 -1 -0 -0 -0 -0
-0 -0 -0 -0 -0 -0 -0 -0 -0 -0 -0 -0 -0 -0 -0 -0 -0 -1 -3 -13 -11 -4 -0 -0 -0 -0 -0 -0 -2 -2 -1 -1 -1 -3 -8 -5 -0 -5 -2 -2 -0 -0 -0
-0 -0 -0 -0 -0 -0 -0 -0 -0 -0 -0 -0 -0 -0 -0 -0 -3 -0 -0 -3 -2 -4 -6 -6 -0 -0 -0 -0 -0 -0 -1 -1 -1 -7 -7 -1 -0 -0 -2 -0 -0 -0 -0
-0 -0 -0 -0 -0 -0 -0 -0 -0 -0 -0 -0 -0 -1 -0 -0 -1 -4 -0 -0 -0 -1 -2 -2 -1 -0 -0 -1 -1 -0 -0 -0 -1 -1 -0 -0 -0 -0 -0 -1 -0 -0 -0
-0 -0 -0 -0 -0 -0 -0 -0 -0 -0 -1 -0 -0 -0 -0 -1 -2 -5 -1 -0 -1 -0 -0 -6 -6 -6 -1 -0 -0 -0 -0 -0 -0 -1 -0 -0 -1 -0 -0 -0 -0 -0 -0
-0 -0 -0 -0 -0 -0 -0 -0 -0 -4 -1 -1 -1 -0 -1 -1 -5 -6 -1 -0 -0 -0 -0 -0 -0 -0 -0 -0 -0 -1 -0 -0 -0 -0 -0 -0 -0 -0 -0 -0 -0 -0 -0
Wind_Speed
9 9 6 4 4 5 3 3 4 4 5 5 6 6 6 6 7 6 4 9 12 13 15 16 17 18 18 17 17 18 19 19 19 20 19 19 18 19 18 18 18 18 18
8 8 8 9 9 6 4 4 5 4 3 3 5 7 7 8 8 7 5 6 15 17 17 17 18 19 19 20 19 19 20 20 20 20 20 20 20 20 20 20 20 20 20
9 8 8 9 10 10 12 10 6 4 4 5 8 9 8 8 7 8 8 8 9 15 17 17 19 21 21 22 21 20 21 21 21 22 22 21 21 21 21 21 21 22 22
11 9 8 8 9 9 9 9 9 8 6 6 7 6 6 6 7 8 10 9 9 9 11 20 19 20 21 22 22 22 22 23 23 24 24 23 23 23 22 22 22 23 23
10 8 8 9 9 8 9 9 10 11 9 8 10 11 10 9 10 10 12 10 10 12 10 13 17 20 21 22 22 23 24 24 24 25 24 24 24 23 23 23 23 24 23
10 9 8 8 9 8 9 9 11 9 9 10 10 12 12 11 8 8 10 11 12 11 10 13 10 9 19 21 23 25 26 26 26 26 25 24 23 23 23 23 23 24 23
10 11 9 9 8 8 9 10 8 11 7 12 7 10 10 12 14 13 11 11 13 14 11 8 7 8 8 20 22 25 27 29 27 25 24 23 22 26 23 22 22 22 23
10 9 10 9 10 8 10 10 10 5 4 9 6 7 7 5 8 13 10 9 13 12 13 13 10 12 9 8 10 23 25 25 25 23 21 20 20 19 19 20 22 22 22
11 10 10 8 8 7 7 8 8 9 6 5 9 6 6 5 12 5 9 9 11 10 10 15 14 12 14 11 18 12 16 17 19 22 21 19 18 18 17 16 17 19 21
10 9 10 9 8 6 7 8 6 5 6 8 4 4 1 3 6 8 10 9 14 12 10 8 11 13 12 8 18 17 24 21 20 18 19 20 17 12 11 12 14 15 18
10 12 10 6 6 6 7 6 6 7 6 5 5 7 4 4 3 3 8 15 12 10 9 12 9 10 10 8 7 17 23 18 16 21 23 21 14 12 12 10 12 15 18
6 10 9 8 8 8 9 9 7 7 8 5 5 6 8 7 8 4 6 8 13 13 12 9 9 10 10 10 15 18 21 14 12 17 18 20 20 17 15 15 16 18 20
5 8 8 8 7 8 8 9 8 7 9 8 9 6 6 6 5 7 8 10 12 11 9 6 11 7 10 9 10 13 16 14 16 15 14 16 19 19 18 18 16 17 18
5 7 7 8 8 8 9 9 7 6 8 7 10 8 6 7 7 7 5 9 13 11 9 14 10 8 11 9 11 14 11 14 18 16 9 13 14 16 19 19 18 19 18
7 7 7 7 7 7 7 7 7 7 8 7 7 8 7 6 7 7 7 2 5 11 14 10 11 14 11 9 10 9 13 16 10 5 8 15 18 13 13 17 18 21 23
6 6 6 7 7 6 7 6 6 7 9 7 7 8 7 7 7 6 7 7 8 10 14 11 11 12 13 13 13 10 11 16 15 10 11 19 21 18 12 15 18 20 21
6 6 7 7 7 7 7 6 8 10 10 10 9 9 10 9 7 7 6 7 9 10 12 11 11 13 15 16 14 10 10 10 9 15 17 22 20 22 12 12 15 19 21
6 6 6 6 7 7 6 7 10 10 11 12 11 11 11 9 9 6 7 10 8 11 11 17 13 12 15 16 16 16 11 10 11 16 24 26 26 19 13 10 10 17 20
6 6 6 6 7 7 7 8 9 10 11 11 11 11 12 10 8 8 8 8 9 8 11 12 13 12 12 12 14 14 12 13 11 21 24 27 22 15 18 12 11 17 21
5 6 6 6 6 7 6 7 9 10 11 11 11 12 10 9 10 9 9 10 10 10 12 13 12 12 11 12 11 12 13 11 14 15 18 15 20 26 27 15 11 13 19
5 5 6 6 6 6 6 6 7 10 11 12 11 12 9 12 6 13 9 10 11 11 11 13 14 14 13 12 13 11 12 12 13 13 12 10 13 13 13 17 8 11 15
5 5 6 6 6 6 6 8 7 9 12 11 12 12 12 14 14 17 18 14 11 12 13 12 12 14 15 13 11 12 11 10 14 4 12 13 11 11 12 10 9 11 13
5 5 5 5 6 5 7 9 11 9 10 11 13 12 12 11 15 16 18 15 14 15 16 14 16 14 16 14 15 15 14 14 13 12 12 14 10 11 10 7 8 11 12
4 5 5 5 5 4 8 8 9 10 10 12 12 13 15 17 16 15 14 15 15 15 14 12 14 15 14 15 15 15 16 15 12 10 9 11 11 10 8 9 7 11 12
4 4 5 6 6 4 5 7 11 10 11 13 13 14 15 16 18 19 15 17 17 14 13 18 19 22 23 25 21 12 10 10 10 8 4 5 3 8 9 2 4 10 10
5 4 6 6 8 8 10 10 12 8 11 11 14 14 16 15 22 22 18 16 16 14 13 14 15 16 16 15 19 12 10 10 10 9 2 3 6 3 4 1 1 2 3
Wind_Direction
355 341 335 329 318 320 311 285 221 225 256 287 265 241 251 259 260 268 284 203 209 212 209 203 206 212 221 230 235 235 234 233 232 232 232 231 231 232 233 233 235 236 238
5 359 345 335 327 320 294 301 306 252 226 250 290 272 239 236 238 240 239 238 214 217 215 215 215 218 223 226 227 230 232 235 237 238 237 234 233 232 231 231 233 234 234
10 11 5 3 355 335 335 322 299 299 285 247 248 250 254 253 244 237 240 244 251 223 230 228 222 221 225 228 228 226 227 229 233 236 237 237 236 235 236 234 235 235 235
19 21 17 12 350 350 352 348 328 311 302 286 292 257 236 232 239 242 242 242 241 247 230 229 237 235 231 229 229 230 229 228 231 233 235 235 236 236 237 237 238 239 239
37 28 25 14 3 10 7 359 347 342 316 300 291 283 272 250 242 247 249 243 235 238 242 245 223 229 232 234 234 234 233 231 230 233 237 238 238 238 237 239 239 241 241
29 25 23 25 21 20 8 5 359 352 334 333 311 294 297 299 283 253 244 243 246 245 237 241 244 236 231 234 236 237 237 236 234 234 235 237 240 241 240 241 243 244 245
25 30 24 23 21 28 21 17 0 352 345 356 323 333 297 286 282 280 272 267 266 263 258 249 237 242 241 227 232 234 237 238 238 239 237 237 240 246 249 251 253 254 253
31 36 27 28 26 18 17 19 26 1 353 6 325 282 315 299 13 322 308 324 338 338 334 302 317 347 313 293 222 233 239 242 244 243 241 239 240 241 246 251 256 260 263
22 30 28 27 32 28 18 8 16 21 5 350 17 26 333 351 320 347 340 347 7 339 353 326 325 339 336 342 344 359 344 313 277 247 238 235 238 238 240 247 255 258 259
38 32 22 26 16 31 18 6 5 18 5 11 348 18 195 303 342 324 329 357 351 337 348 332 336 340 339 343 353 11 8 352 327 346 321 307 290 269 260 266 271 276 279
45 18 18 22 26 22 10 3 15 30 7 349 348 343 351 349 57 265 326 330 326 337 342 344 332 331 327 346 16 358 3 3 347 7 4 352 329 327 318 311 307 299 294
32 19 11 15 13 17 11 356 20 23 9 3 355 356 357 347 340 330 307 326 316 330 334 356 337 5 10 354 357 354 339 332 336 343 342 332 330 337 330 331 320 312 307
25 16 10 9 12 19 11 355 20 14 3 359 359 4 348 332 327 340 332 327 329 318 332 318 345 334 348 344 340 338 334 321 328 328 341 8 357 354 349 348 339 327 319
15 17 9 4 11 18 8 356 8 15 0 356 346 6 348 342 353 339 330 345 330 328 321 328 332 346 330 333 321 321 328 330 330 339 15 0 360 355 349 347 341 332 324
8 11 5 359 6 15 11 0 4 8 358 355 344 348 347 341 347 335 337 324 309 315 317 327 325 317 311 314 316 328 328 335 342 16 6 354 347 346 347 340 337 332 331
7 358 1 358 3 9 358 3 3 8 353 349 351 340 345 334 330 338 323 347 339 321 308 324 322 315 333 324 320 337 328 332 314 337 347 347 338 322 330 338 339 333 327
356 354 360 356 359 4 352 10 10 5 350 343 341 344 337 332 335 328 351 345 330 313 315 315 320 328 321 320 319 322 319 312 326 340 336 333 323 319 313 329 333 330 327
350 353 358 354 356 358 344 30 13 0 349 344 338 336 332 328 328 351 346 329 322 327 322 323 325 326 320 323 326 324 329 337 341 332 338 324 316 309 298 311 323 326 324
342 0 352 357 357 354 357 24 8 355 341 332 331 327 319 319 354 346 347 344 324 338 325 312 314 313 316 321 323 319 335 329 329 332 322 314 313 322 322 305 336 332 328
350 358 350 353 356 343 36 10 1 346 338 328 326 314 317 1 356 8 343 332 338 322 318 313 311 313 311 316 319 324 319 322 325 322 313 316 339 334 323 316 330 336 328
354 344 349 352 344 329 39 17 356 346 331 325 317 324 336 351 1 357 340 329 320 317 313 313 311 312 312 315 315 313 311 313 316 309 318 337 320 313 313 314 313 332 326
346 344 348 344 347 354 56 42 15 338 327 329 327 339 338 330 346 326 322 298 285 299 299 303 302 301 300 303 304 310 306 312 312 286 315 309 307 306 302 296 312 329 329
326 333 337 329 348 348 80 47 2 336 338 338 336 337 328 324 325 320 317 313 305 292 281 291 296 294 299 304 306 307 305 298 295 299 303 300 306 300 302 305 339 342 341
327 322 316 342 342 43 73 34 346 350 337 330 327 324 321 321 320 320 326 317 309 304 298 296 294 296 292 293 293 293 293 288 283 286 279 286 309 301 311 299 345 352 347
308 307 331 337 336 3 109 23 358 343 330 325 326 323 315 314 316 325 314 311 308 301 294 290 290 293 293 290 286 288 282 287 291 294 253 279 284 309 311 338 345 342 347
311 330 325 337 2 5 9 14 354 336 329 327 321 317 313 310 320 316 312 310 303 298 302 300 298 294 288 284 284 276 288 293 294 296 259 255 306 317 306 279 302 338 334